Location: La Trinit�
(48.1620°N, 3.4512°W)
Time: 09:43:02
(UTC+00:00)

CARTOSAT-1 - Pass Details

Date: 08 May 2021
Orbit: 616 x 618 km, 97.8° (Epoch: 12 June)

Event Time Altitude Azimuth Distance (km) Brightness Sun altitude
Exits shadow 21:44:06 26° 179° (S) 1,215 4.6 -16.8°
Maximum altitude 21:46:27 71° 258° (WSW) 658 3.7 -17.1°
Drops below altitude 10° 21:50:47 10° 343° (NNW) 1,993 7.3 -17.5°
Sets 21:52:59 0° 345° (NNW) 2,903 8.4 -17.7°
